Home > Weather > Leibnitz > Past weeks

Flag for Austria Past Weather in Leibnitz, Styria, Austria — Yesterday and Last 2 Weeks

Now
79 °F

Passing clouds.


Feels Like: 80 °F
Forecast: 59 / 85 °F
Wind: N/A

Location: Graz-Thalerhof-Flughafen

Current Time: Jul 29, 2016 at 2:14:21 PM

Latest Report: Jul 29, 2016 at 1:00 PM


Visibility: 11 mi

Pressure: 29.94 "Hg

Humidity: 47%

Dew Point: 57 °F

Location of LeibnitzLocation

Past Weather in Leibnitz — Graph

°F

Leibnitz Temperature Yesterday

Maximum temperature yesterday: 78 °F (at 1:00 PM)
Minimum temperature yesterday: 63 °F (at 3:00 PM)
Average temperature yesterday: 68 °F

High & Low Weather Summary for the Past Weeks

 TemperatureHumidityPressure
High83 °F (Jul 21, 4:00 PM)99% (Jul 26, 5:00 AM)30.17 "Hg (Jul 26, 5:00 AM)
Low50 °F (Jul 15, 6:00 AM)37% (Jul 14, 4:00 PM)29.81 "Hg (Jul 14, 12:00 PM)
Average69 °F74%30.02 "Hg
* Reported Jul 14 12:00 PM — Jul 29 12:00 PM, Leibnitz, Weather by CustomWeather, © 2016

Note: Actual official high and low records may vary slightly from our data, if they occured in-between our weather recording intervals... More about our weather records

Advertising

Leibnitz Weather History for the Previous 24 Hours

Scroll right to see more
 ConditionsComfort  
Time TempWeatherWind HumidityBarometerVisibility
12:00 PM
Fri, Jul 29
78 °FPassing clouds.N/A56%29.96 "Hg18 mi
11:00 AM75 °FPassing clouds.N/A68%29.98 "Hg28 mi
10:00 AM72 °FPassing clouds.N/A75%29.98 "Hg17 mi
9:00 AM70 °FScattered clouds.N/A79%29.99 "Hg19 mi
8:00 AM65 °FLow clouds.N/A89%30.00 "Hg14 mi
7:00 AM63 °FLow clouds.N/A96%30.01 "Hg13 mi
6:00 AM61 °FLight rain. Low clouds.N/A98%30.00 "Hg4 mi
5:00 AM62 °FLight rain. Passing clouds.N/A99%29.99 "Hg1 mi
4:00 AM62 °FLow clouds.N/A98%29.99 "Hg6 mi
3:00 AM63 °FPassing clouds.N/A96%29.98 "Hg4 mi
2:00 AM65 °FOvercast.N/A93%29.98 "Hg18 mi
1:00 AM65 °FOvercast.N/A94%29.99 "Hg10 mi
12:00 AM65 °FOvercast.N/A95%30.00 "Hg19 mi
11:00 PM
Thu, Jul 28
65 °FOvercast.N/A92%30.01 "Hg19 mi
10:00 PM65 °FLow clouds.N/A95%30.01 "Hg12 mi
9:00 PM65 °FLow clouds.N/A91%30.01 "Hg7 mi
8:00 PM66 °FRain showers. Low clouds.N/A93%30.01 "Hg19 mi
7:00 PM67 °FLow clouds.N/A90%30.01 "Hg31 mi
6:00 PM68 °FLow clouds.N/A83%30.00 "Hg28 mi
5:00 PM69 °FLow clouds.N/A88%29.99 "Hg17 mi
4:00 PM68 °FLow clouds.N/A93%30.00 "Hg16 mi
3:00 PM63 °FThundershowers. Overcast.3 mph92%30.03 "Hg1 mi
2:00 PM78 °FPartly sunny.N/A56%29.97 "Hg22 mi
Weather by CustomWeather, © 2016

See weather overviewHow to use our weather pages